EW4931 Weather Reports


time (UTC)temp
F
wind
direction
speed
knots
gust
knots
rain 1hr
in
rain 24hr
in
rain mn
in
humidity
%
barometer
mb
20260503021304 56 31 6.1 9.6 0.00 0.00 0.00 62 1007.1
20260503020803 57 78 5.2 9.6 0.00 0.00 0.00 61 1007.1
20260503020304 57 76 3.5 6.1 0.00 0.00 0.00 61 1007.5
20260503020030 58 39 4.3 8.7 0.00 0.00 0.00 59 1007.6
20260503015305 58 27 5.2 8.7 0.00 0.00 0.00 58 1007.5
20260503014803 58 20 4.3 7.8 0.00 0.00 0.00 57 1007.6
20260503014303 58 47 4.3 12.2 0.00 0.00 0.00 57 1007.5
20260503014022 58 31 5.2 12.2 0.00 0.00 0.00 56 1007.6
20260503013304 59 45 4.3 9.6 0.00 0.00 0.00 56 1007.6
20260503013244 59 0 2.6 9.6 0.00 0.00 0.00 56 1007.8
20260503012523 59 8 3.5 7.8 0.00 0.00 0.00 56 1007.6
20260503011805 59 41 4.3 8.7 0.00 0.00 0.00 57 1007.5
20260503011305 59 27 3.5 8.7 0.00 0.00 0.00 57 1007.6
20260503010805 60 324 3.5 7.8 0.00 0.00 0.00 57 1007.7
20260503010305 60 347 1.7 6.1 0.00 0.00 0.00 57 1007.6
20260503005805 60 320 2.6 6.1 0.00 0.00 0.00 56 1007.6
20260503005526 60 321 2.6 7.8 0.00 0.00 0.00 56 1007.5
20260503004805 60 307 4.3 7.8 0.00 0.00 0.00 56 1007.6
20260503004304 60 324 4.3 6.1 0.00 0.00 0.00 56 1007.5
20260503003804 60 316 4.3 8.7 0.00 0.00 0.00 56 1007.5
20260503003530 60 305 5.2 8.7 0.00 0.00 0.00 56 1007.5
20260503003028 60 296 3.5 7.8 0.00 0.00 0.00 56 1007.4
20260503002305 60 306 3.5 4.3 0.00 0.00 0.00 57 1007.2
20260503002028 60 289 2.6 5.2 0.00 0.00 0.00 57 1007.2
20260503001304 60 293 2.6 5.2 0.00 0.00 0.00 57 1007.2
20260503001029 60 282 1.7 2.6 0.00 0.00 0.00 56 1007.3
20260503000523 61 292 1.7 3.5 0.00 0.00 0.00 56 1007.2
20260502235804 61 282 1.7 3.5 0.00 0.00 0.00 56 1007.2
20260502235305 61 292 1.7 2.6 0.00 0.00 0.00 56 1007.2
20260502235024 61 281 0.9 3.5 0.00 0.00 0.00 55 1007.1
20260502234305 61 302 2.6 3.5 0.00 0.00 0.00 55 1007.1
20260502233804 61 281 2.6 4.3 0.00 0.00 0.00 55 1007.1
20260502233304 61 299 2.6 4.3 0.00 0.00 0.00 55 1007.1
20260502233030 61 278 0.9 2.6 0.00 0.00 0.00 55 1007.1
20260502232305 62 261 1.7 2.6 0.00 0.00 0.00 54 1007.1
20260502231804 62 278 1.7 3.5 0.00 0.00 0.00 54 1007.2
20260502231303 62 309 1.7 3.5 0.00 0.00 0.00 54 1007.2
20260502230804 62 283 1.7 2.6 0.00 0.00 0.00 54 1007.3
20260502230303 62 278 0.9 3.5 0.00 0.00 0.00 54 1007.2
20260502225805 62 275 0.9 4.3 0.00 0.00 0.00 54 1007.3
20260502225305 62 303 2.6 4.3 0.00 0.00 0.00 53 1007.3
20260502224805 63 303 2.6 5.2 0.00 0.00 0.00 53 1007.3
20260502224305 63 293 1.7 7.8 0.00 0.00 0.00 52 1007.3
20260502223805 63 282 4.3 7.8 0.00 0.00 0.00 52 1007.3
20260502223305 63 292 2.6 6.1 0.00 0.00 0.00 52 1007.4
20260502222805 63 288 3.5 6.1 0.00 0.00 0.00 52 1007.4
20260502222305 63 288 2.6 7.8 0.00 0.00 0.00 52 1007.4
20260502221803 63 299 4.3 7.8 0.00 0.00 0.00 51 1007.4
20260502221304 64 321 5.2 7.8 0.00 0.00 0.00 51 1007.4
20260502220804 64 282 3.5 9.6 0.00 0.00 0.00 51 1007.5
20260502220304 64 286 6.1 9.6 0.00 0.00 0.00 51 1007.4
20260502215804 64 306 3.5 12.2 0.00 0.00 0.00 51 1007.4
20260502215305 64 272 7.0 12.2 0.00 0.00 0.00 51 1007.5
20260502214804 64 327 3.5 9.6 0.00 0.00 0.00 51 1007.6
20260502214303 64 289 5.2 13.0 0.00 0.00 0.00 50 1007.7
20260502213803 64 292 7.8 13.0 0.00 0.00 0.00 51 1007.7
20260502213304 65 285 3.5 9.6 0.00 0.00 0.00 50 1007.7
20260502212803 65 298 4.3 9.6 0.00 0.00 0.00 50 1007.7
20260502212305 65 257 5.2 11.3 0.00 0.00 0.00 50 1007.7
20260502212025 65 307 6.1 13.0 0.00 0.00 0.00 49 1007.8
20260502211528 65 310 4.3 13.0 0.00 0.00 0.00 49 1007.8
20260502210803 65 300 7.0 11.3 0.00 0.00 0.00 49 1007.8
20260502210303 65 289 5.2 11.3 0.00 0.00 0.00 49 1007.8
20260502210026 64 310 4.3 9.6 0.00 0.00 0.00 50 1007.8
20260502205749 64 275 4.3 6.1 0.00 0.00 0.00 50 1007.9
20260502204803 64 269 3.5 6.1 0.00 0.00 0.00 51 1008.0
20260502204304 64 299 3.5 7.8 0.00 0.00 0.00 51 1008.0
20260502204242 63 290 4.3 7.8 0.00 0.00 0.00 52 1007.9
20260502203303 62 295 4.3 6.1 0.00 0.00 0.00 54 1008.0
20260502202804 60 290 4.3 6.1 0.00 0.00 0.00 59 1008.0
20260502202304 59 292 2.6 3.5 0.00 0.00 0.00 62 1008.0
20260502201803 58 302 0.0 1.7 0.00 0.00 0.00 64 1008.0
20260502201303 58 320 0.0 0.0 0.00 0.00 0.00 64 1008.0
20260502200803 57 320 0.0 0.0 0.00 0.00 0.00 65 1007.9
20260502200303 58 320 0.0 0.0 0.00 0.00 0.00 64 1007.9
20260502195804 58 320 0.0 0.0 0.00 0.00 0.00 64 1007.9
20260502195305 58 320 0.0 0.0 0.00 0.00 0.00 63 1007.9
20260502195026 58 320 0.0 0.0 0.00 0.00 0.00 63 1007.9
20260502194301 58 320 0.0 0.0 0.00 0.00 0.00 63 1007.9
20260502193759 59 320 0.0 1.7 0.00 0.00 0.00 62 1007.8
20260502193241 59 320 0.0 2.6 0.00 0.00 0.00 61 1007.8
20260502192741 59 336 0.9 2.6 0.00 0.00 0.00 61 1007.8
20260502192239 60 258 0.0 1.7 0.00 0.00 0.00 60 1007.7
20260502192006 60 259 0.0 1.7 0.00 0.00 0.00 59 1007.7
20260502191233 60 275 0.0 1.7 0.00 0.00 0.00 59 1007.6
20260502190949 61 221 0.0 0.9 0.00 0.00 0.00 58 1007.6
20260502190231 61 221 0.0 0.9 0.00 0.00 0.00 57 1007.6
20260502185732 62 220 0.9 3.5 0.00 0.00 0.00 57 1007.5
20260502185232 62 240 0.9 3.5 0.00 0.00 0.00 56 1007.5
20260502184733 62 235 0.9 2.6 0.00 0.00 0.00 56 1007.5
20260502184231 63 200 0.9 2.6 0.00 0.00 0.00 55 1007.5
20260502183733 63 210 0.9 2.6 0.00 0.00 0.00 55 1007.5
20260502183230 63 237 0.0 2.6 0.00 0.00 0.00 54 1007.5
20260502182731 64 203 0.9 2.6 0.00 0.00 0.00 53 1007.5
20260502182231 64 189 1.7 2.6 0.00 0.00 0.00 52 1007.5
20260502181730 65 204 0.9 3.5 0.00 0.00 0.00 52 1007.4
20260502181233 65 207 0.9 3.5 0.00 0.00 0.00 52 1007.4
20260502180733 66 202 1.7 3.5 0.00 0.00 0.00 50 1007.3
20260502180457 66 196 1.7 2.6 0.00 0.00 0.00 49 1007.3
20260502170232 72 204 1.7 4.3 0.00 0.00 0.00 41 1007.4
20260502164232 74 274 9.6 22.6 0.00 0.00 0.00 34 1007.4
20260502163731 74 331 7.0 11.3 0.00 0.00 0.00 34 1007.5
20260502163231 74 303 5.2 13.0 0.00 0.00 0.00 34 1007.5
20260502162952 74 275 4.3 11.3 0.00 0.00 0.00 35 1007.6
20260502162450 73 230 6.1 11.3 0.00 0.00 0.00 37 1007.7
20260502161731 73 271 2.6 5.2 0.00 0.00 0.00 41 1007.8
20260502161231 73 230 3.5 7.8 0.00 0.00 0.00 41 1007.7
20260502160730 73 204 2.6 7.8 0.00 0.00 0.00 39 1007.9
20260502160455 73 234 1.7 7.8 0.00 0.00 0.00 40 1007.9
20260502151728 73 238 4.3 10.4 0.00 0.00 0.00 39 1008.6
20260502151228 72 240 3.5 10.4 0.00 0.00 0.00 39 1008.6
20260502150728 73 238 5.2 8.7 0.00 0.00 0.00 39 1008.8
20260502150227 73 234 3.5 7.8 0.00 0.00 0.00 39 1008.8
20260502130727 73 244 4.3 11.3 0.00 0.00 0.00 40 1010.1
20260502130225 72 252 7.0 11.3 0.00 0.00 0.00 41 1010.2
20260502123724 74 176 7.8 15.6 0.00 0.00 0.00 36 1010.5
20260502123225 74 224 7.0 15.6 0.00 0.00 0.00 36 1010.5
20260502122724 73 138 5.2 13.0 0.00 0.00 0.00 36 1010.6
20260502122224 73 281 8.7 14.8 0.00 0.00 0.00 36 1010.8
20260502121724 73 283 9.6 14.8 0.00 0.00 0.00 36 1010.7
20260502121224 73 295 5.2 18.2 0.00 0.00 0.00 35 1010.8
20260502120724 73 320 6.1 18.2 0.00 0.00 0.00 35 1010.9
20260502120223 73 326 7.8 13.0 0.00 0.00 0.00 35 1010.8
20260502115725 72 247 7.8 22.6 0.00 0.00 0.00 36 1011.0
20260502115223 72 303 9.6 22.6 0.00 0.00 0.00 36 1011.1
20260502114722 72 323 12.2 16.5 0.00 0.00 0.00 35 1011.2
20260502114440 72 283 7.0 13.0 0.00 0.00 0.00 36 1011.3
20260502113942 72 286 6.1 13.0 0.00 0.00 0.00 36 1011.3
20260502113446 72 258 8.7 13.9 0.00 0.00 0.00 36 1011.3
20260502112722 72 276 5.2 16.5 0.00 0.00 0.00 36 1011.4
20260502112448 71 262 10.4 17.4 0.00 0.00 0.00 37 1011.5
20260502111722 71 269 12.2 17.4 0.00 0.00 0.00 36 1011.5
20260502111221 71 276 9.6 15.6 0.00 0.00 0.00 37 1011.6
20260502110722 71 279 9.6 15.6 0.00 0.00 0.00 36 1011.7
20260502110222 71 285 11.3 15.6 0.00 0.00 0.00 37 1011.8
20260502105722 71 268 9.6 14.8 0.00 0.00 0.00 36 1011.8
20260502105222 72 244 6.1 15.6 0.00 0.00 0.00 37 1011.9
20260502104721 71 285 8.7 15.6 0.00 0.00 0.00 37 1012.0
20260502104221 70 285 9.6 13.9 0.00 0.00 0.00 38 1012.0
20260502103721 70 258 8.7 13.9 0.00 0.00 0.00 37 1012.0
20260502103448 70 313 7.8 17.4 0.00 0.00 0.00 38 1012.1
20260502102720 69 310 11.3 17.4 0.00 0.00 0.00 37 1012.2
20260502102220 70 289 8.7 13.9 0.00 0.00 0.00 37 1012.2
20260502101720 69 279 8.7 14.8 0.00 0.00 0.00 37 1012.2
20260502101439 69 296 4.3 14.8 0.00 0.00 0.00 37 1012.3
20260502100720 69 283 7.0 18.2 0.00 0.00 0.00 38 1012.3
20260502100220 69 275 6.1 18.2 0.00 0.00 0.00 38 1012.5
20260502091219 67 234 5.2 14.8 0.00 0.00 0.00 37 1012.9
20260502090719 68 290 10.4 13.9 0.00 0.00 0.00 37 1013.0
20260502090219 67 257 7.0 12.2 0.00 0.00 0.00 36 1013.1
20260502071216 63 283 8.7 15.6 0.00 0.00 0.00 41 1013.8
20260502070716 63 296 6.1 15.6 0.00 0.00 0.00 41 1013.8
20260502070216 62 316 6.1 13.0 0.00 0.00 0.00 41 1013.7
20260502065935 62 279 5.2 15.6 0.00 0.00 0.00 41 1013.8
20260502065216 62 303 7.8 15.6 0.00 0.00 0.00 41 1013.8
20260502064936 62 274 6.1 20.9 0.00 0.00 0.00 41 1013.9
20260502064216 61 274 11.3 20.9 0.00 0.00 0.00 41 1013.9
20260502063715 61 237 6.1 14.8 0.00 0.00 0.00 41 1014.0
20260502063216 61 276 7.0 16.5 0.00 0.00 0.00 42 1014.0
20260502062716 61 276 7.8 16.5 0.00 0.00 0.00 42 1014.0
20260502062656 61 268 12.2 16.5 0.00 0.00 0.00 42 1014.2
20260502061934 60 251 7.0 15.6 0.00 0.00 0.00 43 1014.1
20260502061216 60 300 10.4 14.8 0.00 0.00 0.00 44 1014.1
20260502060715 60 289 6.1 20.0 0.00 0.00 0.00 44 1014.2
20260502060215 59 303 7.8 20.0 0.00 0.00 0.00 45 1014.1
20260502055715 59 298 7.8 14.8 0.00 0.00 0.00 45 1014.1
20260502055215 59 298 9.6 14.8 0.00 0.00 0.00 46 1014.3
20260502054715 58 254 8.7 12.2 0.00 0.00 0.00 47 1014.3
20260502054435 58 272 6.1 13.0 0.00 0.00 0.00 47 1014.3
20260502053715 58 261 7.0 14.8 0.00 0.00 0.00 47 1014.4
20260502053214 58 293 10.4 14.8 0.00 0.00 0.00 48 1014.3
20260502052715 57 298 5.2 11.3 0.00 0.00 0.00 50 1014.3
20260502052214 57 334 6.1 13.0 0.00 0.00 0.00 51 1014.3
20260502051715 57 290 7.0 13.0 0.00 0.00 0.00 52 1014.3
20260502051214 56 320 9.6 12.2 0.00 0.00 0.00 52 1014.3
20260502050939 56 296 7.8 12.2 0.00 0.00 0.00 54 1014.4
20260502050215 56 283 6.1 12.2 0.00 0.00 0.00 55 1014.4
20260502045714 55 288 5.2 8.7 0.00 0.00 0.00 56 1014.4
20260502045214 55 285 6.1 8.7 0.00 0.00 0.00 56 1014.4
20260502044714 55 293 4.3 10.4 0.00 0.00 0.00 57 1014.5
20260502044214 55 309 6.1 10.4 0.00 0.00 0.00 58 1014.5
20260502043935 54 296 4.3 10.4 0.00 0.00 0.00 58 1014.6
20260502043433 54 289 4.3 10.4 0.00 0.00 0.00 59 1014.6
20260502042713 54 298 4.3 8.7 0.00 0.00 0.00 59 1014.7
20260502042213 54 271 5.2 8.7 0.00 0.00 0.00 59 1014.7
20260502041713 54 290 4.3 5.2 0.00 0.00 0.00 59 1014.6
20260502041431 54 275 2.6 7.8 0.00 0.00 0.00 59 1014.7
20260502040712 54 255 3.5 8.7 0.00 0.00 0.00 59 1014.6
20260502040434 54 282 3.5 8.7 0.00 0.00 0.00 59 1014.7
20260502035931 54 266 5.2 7.8 0.00 0.00 0.00 59 1014.7
20260502035212 54 262 3.5 9.6 0.00 0.00 0.00 58 1014.7
20260502034929 54 285 2.6 9.6 0.00 0.00 0.00 58 1014.8
20260502034213 54 265 1.7 8.7 0.00 0.00 0.00 58 1014.8
20260502033712 54 293 5.2 8.7 0.00 0.00 0.00 58 1014.8
20260502033212 54 268 4.3 6.1 0.00 0.00 0.00 58 1014.9
20260502032712 54 276 3.5 7.8 0.00 0.00 0.00 58 1014.9
20260502032212 54 302 4.3 9.6 0.00 0.00 0.00 58 1015.0
20260502031712 54 289 3.5 9.6 0.00 0.00 0.00 58 1015.0
20260502031211 54 288 6.1 11.3 0.00 0.00 0.00 58 1015.1
20260502030712 54 274 5.2 11.3 0.00 0.00 0.00 58 1015.0
20260502030211 54 283 4.3 8.7 0.00 0.00 0.00 57 1015.0
20260502025711 54 269 4.3 9.6 0.00 0.00 0.00 57 1015.1
20260502025211 54 289 5.2 9.6 0.00 0.00 0.00 57 1015.2
20260502024711 54 274 4.3 9.6 0.00 0.00 0.00 56 1015.2
20260502024211 54 282 6.1 9.6 0.00 0.00 0.00 56 1015.3
20260502023711 55 259 4.3 9.6 0.00 0.00 0.00 55 1015.3
20260502023211 55 299 4.3 10.4 0.00 0.00 0.00 54 1015.4
20260502022711 55 302 5.2 12.2 0.00 0.00 0.00 54 1015.3
20260502022432 55 281 6.1 12.2 0.00 0.00 0.00 53 1015.3